This is the latest recevied weather packets stored in our database for station/object K6GMW. If no packets are shown the sender has not sent any weather packets the latest 10 day(s).
| Time | Temp. | Humidity | Pressure | Rain* | Wind** | Luminosity | Snow |
|---|---|---|---|---|---|---|---|
| 1777395739 | 27.22° C | 79% | 1015.8 hPa | 0 mm | - | 181 W/m² | - |
| 1777395435 | 27.22° C | 78% | 1015.9 hPa | 0 mm | - | 278 W/m² | - |
| 1777395133 | 27.22° C | 77% | 1015.7 hPa | 0 mm | - | 391 W/m² | - |
| 1777394830 | 27.22° C | 79% | 1015.9 hPa | 0 mm | - | 373 W/m² | - |
| 1777394526 | 27.22° C | 78% | 1016 hPa | 0 mm | - | 364 W/m² | - |
| 1777394223 | 27.22° C | 80% | 1015.9 hPa | 0 mm | - | 380 W/m² | - |
| 1777393918 | 26.67° C | 80% | 1016 hPa | 0 mm | - | 393 W/m² | - |
| 1777393618 | 26.67° C | 82% | 1015.7 hPa | 0 mm | - | 440 W/m² | - |
| 1777393313 | 26.67° C | 83% | 1015.8 hPa | 0 mm | - | 239 W/m² | - |
| 1777393010 | 26.11° C | 83% | 1015.6 hPa | 0 mm | - | 258 W/m² | - |
| 1777392705 | 26.11° C | 83% | 1015.3 hPa | 0 mm | - | 170 W/m² | - |
| 1777392402 | 26.11° C | 83% | 1015.1 hPa | 0 mm | - | 168 W/m² | - |
| 1777392098 | 26.11° C | 83% | 1015.2 hPa | 0 mm | - | 171 W/m² | - |
| 1777391792 | 26.11° C | 83% | 1015.2 hPa | 0 mm | - | 157 W/m² | - |
| 1777391489 | 26.11° C | 83% | 1015.3 hPa | 0 mm | - | 195 W/m² | - |
| 1777391185 | 26.11° C | 84% | 1015 hPa | 0 mm | - | 237 W/m² | - |
| 1777390881 | 26.11° C | 84% | 1015 hPa | 0 mm | - | 264 W/m² | - |
| 1777390578 | 26.11° C | 85% | 1014.9 hPa | 0 mm | - | 265 W/m² | - |
| 1777390275 | 26.11° C | 85% | 1014.8 hPa | 0 mm | - | 238 W/m² | - |
| 1777389971 | 26.11° C | 85% | 1014.9 hPa | 0 mm | - | 151 W/m² | - |
| 1777389668 | 26.11° C | 85% | 1015 hPa | 0 mm | - | 150 W/m² | - |
| 1777389364 | 26.11° C | 84% | 1015 hPa | 0 mm | - | 211 W/m² | - |
| 1777389062 | 26.11° C | 85% | 1015.2 hPa | 0 mm | - | 231 W/m² | - |
| 1777388759 | 25.56° C | 86% | 1014.9 hPa | 0 mm | - | 233 W/m² | - |
| 1777388456 | 25.56° C | 87% | 1014.8 hPa | 0 mm | - | 165 W/m² | - |
* Rain latest hour (hover to see other rain measurements)
** Current wind speed in m/s (hover to see current wind gust speed)